owner,sensor,date,latitude,longitude,vertical_datum,direction_of_sea_water_velocity,sea_water_speed,upward_sea_water_velocity,qcFlag 
TABS,ioos:station:wmo:42046:1,2005-04-24T00:00:00Z,27.8903,-94.0367,2.0,277.0706014,29.8167235,-99999.0,'11111222,11111222,99999999' 
TABS,ioos:station:wmo:42046:1,2005-04-24T00:30:00Z,27.8903,-94.0367,2.0,266.2299006,26.61759005,-99999.0,'11111222,11111222,99999999' 
TABS,ioos:station:wmo:42046:1,2005-04-24T01:00:00Z,27.8903,-94.0367,2.0,273.4732639,26.24820184,-99999.0,'11111222,11111222,99999999' 
TABS,ioos:station:wmo:42046:1,2005-04-24T01:30:00Z,27.8903,-94.0367,2.0,275.1834083,22.6927852,-99999.0,'11111222,11111222,99999999' 
TABS,ioos:station:wmo:42046:1,2005-04-24T02:00:00Z,27.8903,-94.0367,2.0,277.586153,21.28628901,-99999.0,'11111222,11111222,99999999' 
TABS,ioos:station:wmo:42046:1,2005-04-24T02:30:00Z,27.8903,-94.0367,2.0,286.6969537,20.53579558,-99999.0,'11111222,11111222,99999999' 
TABS,ioos:station:wmo:42046:1,2005-04-24T03:00:00Z,27.8903,-94.0367,2.0,282.9469002,16.96115857,-99999.0,'11111222,11111222,99999999' 
TABS,ioos:station:wmo:42046:1,2005-04-24T03:30:00Z,27.8903,-94.0367,2.0,278.5847443,14.80586708,-99999.0,'11111222,11111222,99999999' 
TABS,ioos:station:wmo:42046:1,2005-04-24T04:00:00Z,27.8903,-94.0367,2.0,289.5011048,13.09093198,-99999.0,'11111222,11111222,99999999' 
TABS,ioos:station:wmo:42046:1,2005-04-24T04:30:00Z,27.8903,-94.0367,2.0,284.2544847,10.84384618,-99999.0,'11111222,11111222,99999999' 
TABS,ioos:station:wmo:42046:1,2005-04-24T05:00:00Z,27.8903,-94.0367,2.0,275.1948377,9.167649644,-99999.0,'11133222,11111222,99999999' 
TABS,ioos:station:wmo:42046:1,2005-04-24T05:30:00Z,27.8903,-94.0367,2.0,259.3374795,7.458773358,-99999.0,'11133222,11111222,99999999' 
TABS,ioos:station:wmo:42046:1,2005-04-24T06:00:00Z,27.8903,-94.0367,2.0,252.5801837,7.315497249,-99999.0,'11133222,11111222,99999999' 
TABS,ioos:station:wmo:42046:1,2005-04-24T06:30:00Z,27.8903,-94.0367,2.0,211.8717709,8.654906123,-99999.0,'11133222,11111222,99999999' 
TABS,ioos:station:wmo:42046:1,2005-04-24T07:00:00Z,27.8903,-94.0367,2.0,221.6539009,9.208083405,-99999.0,'11133222,11111222,99999999' 
TABS,ioos:station:wmo:42046:1,2005-04-24T07:30:00Z,27.8903,-94.0367,2.0,224.5099899,12.41017728,-99999.0,'11111222,11111222,99999999' 
TABS,ioos:station:wmo:42046:1,2005-04-24T08:00:00Z,27.8903,-94.0367,2.0,225.5913567,16.43403785,-99999.0,'11111222,11111222,99999999' 
TABS,ioos:station:wmo:42046:1,2005-04-24T08:30:00Z,27.8903,-94.0367,2.0,246.3259924,18.52928763,-99999.0,'11111222,11111222,99999999' 
TABS,ioos:station:wmo:42046:1,2005-04-24T09:00:00Z,27.8903,-94.0367,2.0,242.1023733,17.88890718,-99999.0,'11111222,11111222,99999999' 
TABS,ioos:station:wmo:42046:1,2005-04-24T09:30:00Z,27.8903,-94.0367,2.0,241.7708689,16.17358958,-99999.0,'11111222,11111222,99999999' 
TABS,ioos:station:wmo:42046:1,2005-04-24T10:00:00Z,27.8903,-94.0367,2.0,240.7823072,17.78237329,-99999.0,'11111222,11111222,99999999' 
TABS,ioos:station:wmo:42046:1,2005-04-24T10:30:00Z,27.8903,-94.0367,2.0,243.1710425,24.30631605,-99999.0,'11111222,11111222,99999999' 
TABS,ioos:station:wmo:42046:1,2005-04-24T11:00:00Z,27.8903,-94.0367,2.0,251.1668418,25.9597631,-99999.0,'11111222,11111222,99999999' 
TABS,ioos:station:wmo:42046:1,2005-04-24T11:30:00Z,27.8903,-94.0367,2.0,249.0177815,19.21400531,-99999.0,'11111222,11111222,99999999' 
TABS,ioos:station:wmo:42046:1,2005-04-24T12:00:00Z,27.8903,-94.0367,2.0,247.0723473,21.07491874,-99999.0,'11111222,11111222,99999999' 
TABS,ioos:station:wmo:42046:1,2005-04-24T12:30:00Z,27.8903,-94.0367,2.0,247.7994424,19.74360656,-99999.0,'11111222,11111222,99999999' 
TABS,ioos:station:wmo:42046:1,2005-04-24T13:00:00Z,27.8903,-94.0367,2.0,249.0733157,17.38682547,-99999.0,'11111222,11111222,99999999' 
TABS,ioos:station:wmo:42046:1,2005-04-24T13:30:00Z,27.8903,-94.0367,2.0,249.4243434,20.91408377,-99999.0,'11111222,11111222,99999999' 
TABS,ioos:station:wmo:42046:1,2005-04-24T14:00:00Z,27.8903,-94.0367,2.0,252.0671019,20.91610862,-99999.0,'11111222,11111222,99999999' 
TABS,ioos:station:wmo:42046:1,2005-04-24T14:30:00Z,27.8903,-94.0367,2.0,261.8944084,22.76742629,-99999.0,'11111222,11111222,99999999' 
TABS,ioos:station:wmo:42046:1,2005-04-24T15:00:00Z,27.8903,-94.0367,2.0,251.9101973,20.4508215,-99999.0,'11111222,11111222,99999999' 
TABS,ioos:station:wmo:42046:1,2005-04-24T15:30:00Z,27.8903,-94.0367,2.0,260.0350849,21.38255364,-99999.0,'11111222,11111222,99999999' 
TABS,ioos:station:wmo:42046:1,2005-04-24T16:00:00Z,27.8903,-94.0367,2.0,257.9256209,19.26620097,-99999.0,'11111222,11111222,99999999' 
TABS,ioos:station:wmo:42046:1,2005-04-24T16:30:00Z,27.8903,-94.0367,2.0,253.5939851,16.07445178,-99999.0,'11111222,11111222,99999999' 
TABS,ioos:station:wmo:42046:1,2005-04-24T17:00:00Z,27.8903,-94.0367,2.0,262.6579182,15.41638738,-99999.0,'11111222,11111222,99999999' 
TABS,ioos:station:wmo:42046:1,2005-04-24T17:30:00Z,27.8903,-94.0367,2.0,261.0542182,18.58606198,-99999.0,'11111222,11111222,99999999' 
TABS,ioos:station:wmo:42046:1,2005-04-24T18:00:00Z,27.8903,-94.0367,2.0,267.6788371,19.75620409,-99999.0,'11111222,11111222,99999999' 
TABS,ioos:station:wmo:42046:1,2005-04-24T18:30:00Z,27.8903,-94.0367,2.0,264.4878461,18.63616377,-99999.0,'11111222,11111222,99999999' 
TABS,ioos:station:wmo:42046:1,2005-04-24T19:00:00Z,27.8903,-94.0367,2.0,234.3897205,41.47602802,-99999.0,'11111222,11111222,99999999' 
TABS,ioos:station:wmo:42046:1,2005-04-24T19:30:00Z,27.8903,-94.0367,2.0,249.0089675,36.87721519,-99999.0,'11111222,11111222,99999999' 
TABS,ioos:station:wmo:42046:1,2005-04-24T20:00:00Z,27.8903,-94.0367,2.0,263.0328602,33.22531113,-99999.0,'11111222,11111222,99999999' 
TABS,ioos:station:wmo:42046:1,2005-04-24T20:30:00Z,27.8903,-94.0367,2.0,257.3809957,35.29245953,-99999.0,'11111222,11111222,99999999' 
TABS,ioos:station:wmo:42046:1,2005-04-24T21:00:00Z,27.8903,-94.0367,2.0,263.0154476,33.80080768,-99999.0,'11111222,11111222,99999999' 
TABS,ioos:station:wmo:42046:1,2005-04-24T21:30:00Z,27.8903,-94.0367,2.0,275.2662489,30.5087594,-99999.0,'11111222,11111222,99999999' 
TABS,ioos:station:wmo:42046:1,2005-04-24T22:00:00Z,27.8903,-94.0367,2.0,283.5312912,29.14906517,-99999.0,'11111222,11111222,99999999' 
TABS,ioos:station:wmo:42046:1,2005-04-24T22:30:00Z,27.8903,-94.0367,2.0,288.2973558,28.89065247,-99999.0,'11111222,11111222,99999999' 
TABS,ioos:station:wmo:42046:1,2005-04-24T23:00:00Z,27.8903,-94.0367,2.0,292.7000696,30.9146454,-99999.0,'11111222,11111222,99999999' 
TABS,ioos:station:wmo:42046:1,2005-04-24T23:30:00Z,27.8903,-94.0367,2.0,293.6559339,28.8108608,-99999.0,'11111222,11111222,99999999' 
TABS,ioos:station:wmo:42046:1,2005-04-25T00:00:00Z,27.8903,-94.0367,2.0,302.0626601,28.80333661,-99999.0,'11111222,11111222,99999999' 
TABS,ioos:station:wmo:42046:1,2005-04-25T00:30:00Z,27.8903,-94.0367,2.0,305.3537099,28.18787328,-99999.0,'11111222,11111222,99999999' 
TABS,ioos:station:wmo:42046:1,2005-04-25T01:00:00Z,27.8903,-94.0367,2.0,307.7622339,27.107285,-99999.0,'11111222,11111222,99999999' 
TABS,ioos:station:wmo:42046:1,2005-04-25T01:30:00Z,27.8903,-94.0367,2.0,317.4210247,18.91784607,-99999.0,'11111222,11111222,99999999' 
TABS,ioos:station:wmo:42046:1,2005-04-25T02:00:00Z,27.8903,-94.0367,2.0,339.1478499,12.44515167,-99999.0,'11111222,11111222,99999999' 
TABS,ioos:station:wmo:42046:1,2005-04-25T02:30:00Z,27.8903,-94.0367,2.0,358.2263868,10.01479905,-99999.0,'11111222,11111222,99999999' 
TABS,ioos:station:wmo:42046:1,2005-04-25T03:00:00Z,27.8903,-94.0367,2.0,18.11795042,9.711503488,-99999.0,'11133222,11111222,99999999' 
TABS,ioos:station:wmo:42046:1,2005-04-25T03:30:00Z,27.8903,-94.0367,2.0,24.44894193,9.809612633,-99999.0,'11133222,11111222,99999999' 
TABS,ioos:station:wmo:42046:1,2005-04-25T04:00:00Z,27.8903,-94.0367,2.0,35.44872365,8.224530382,-99999.0,'11133222,11111222,99999999' 
TABS,ioos:station:wmo:42046:1,2005-04-25T04:30:00Z,27.8903,-94.0367,2.0,28.85123699,11.21162343,-99999.0,'11111222,11111222,99999999' 
TABS,ioos:station:wmo:42046:1,2005-04-25T05:00:00Z,27.8903,-94.0367,2.0,32.01703901,10.54379913,-99999.0,'11111222,11111222,99999999' 
TABS,ioos:station:wmo:42046:1,2005-04-25T05:30:00Z,27.8903,-94.0367,2.0,29.79507177,12.77930358,-99999.0,'11111222,11111222,99999999' 
TABS,ioos:station:wmo:42046:1,2005-04-25T06:00:00Z,27.8903,-94.0367,2.0,40.12961398,12.90888454,-99999.0,'11111222,11111222,99999999' 
TABS,ioos:station:wmo:42046:1,2005-04-25T06:30:00Z,27.8903,-94.0367,2.0,43.63759083,13.67931285,-99999.0,'11111222,11111222,99999999' 
TABS,ioos:station:wmo:42046:1,2005-04-25T07:00:00Z,27.8903,-94.0367,2.0,52.3923795,14.28918472,-99999.0,'11111222,11111222,99999999' 
TABS,ioos:station:wmo:42046:1,2005-04-25T07:30:00Z,27.8903,-94.0367,2.0,60.46128681,12.41347655,-99999.0,'11111222,11111222,99999999' 
TABS,ioos:station:wmo:42046:1,2005-04-25T08:00:00Z,27.8903,-94.0367,2.0,59.17536494,13.42666377,-99999.0,'11111222,11111222,99999999' 
TABS,ioos:station:wmo:42046:1,2005-04-25T08:30:00Z,27.8903,-94.0367,2.0,66.54835457,12.18666895,-99999.0,'11111222,11111222,99999999' 
TABS,ioos:station:wmo:42046:1,2005-04-25T09:00:00Z,27.8903,-94.0367,2.0,67.52624601,12.97542678,-99999.0,'11111222,11111222,99999999' 
TABS,ioos:station:wmo:42046:1,2005-04-25T09:30:00Z,27.8903,-94.0367,2.0,67.81264084,12.12803776,-99999.0,'11111222,11111222,99999999' 
TABS,ioos:station:wmo:42046:1,2005-04-25T10:00:00Z,27.8903,-94.0367,2.0,70.68160157,13.33058513,-99999.0,'11111222,11111222,99999999' 
TABS,ioos:station:wmo:42046:1,2005-04-25T10:30:00Z,27.8903,-94.0367,2.0,89.19590338,11.40112275,-99999.0,'11111222,11111222,99999999' 
TABS,ioos:station:wmo:42046:1,2005-04-25T11:00:00Z,27.8903,-94.0367,2.0,85.19903519,11.47024411,-99999.0,'11111222,11111222,99999999' 
TABS,ioos:station:wmo:42046:1,2005-04-25T11:30:00Z,27.8903,-94.0367,2.0,91.39912699,14.33427361,-99999.0,'11111222,11111222,99999999' 
TABS,ioos:station:wmo:42046:1,2005-04-25T12:00:00Z,27.8903,-94.0367,2.0,96.94818066,11.65559951,-99999.0,'11111222,11111222,99999999' 
TABS,ioos:station:wmo:42046:1,2005-04-25T12:30:00Z,27.8903,-94.0367,2.0,93.41295028,9.406683794,-99999.0,'11133222,11111222,99999999' 
TABS,ioos:station:wmo:42046:1,2005-04-25T13:00:00Z,27.8903,-94.0367,2.0,116.1409772,9.669022701,-99999.0,'11133222,11111222,99999999' 
TABS,ioos:station:wmo:42046:1,2005-04-25T13:30:00Z,27.8903,-94.0367,2.0,109.6295772,9.555317891,-99999.0,'11133222,11111222,99999999' 
TABS,ioos:station:wmo:42046:1,2005-04-25T14:00:00Z,27.8903,-94.0367,2.0,134.3425155,8.012047179,-99999.0,'11133222,11111222,99999999' 
TABS,ioos:station:wmo:42046:1,2005-04-25T14:30:00Z,27.8903,-94.0367,2.0,118.6730794,6.565066641,-99999.0,'11133222,11111222,99999999' 
TABS,ioos:station:wmo:42046:1,2005-04-25T15:00:00Z,27.8903,-94.0367,2.0,125.5566742,6.98183357,-99999.0,'11133222,11111222,99999999' 
TABS,ioos:station:wmo:42046:1,2005-04-25T15:30:00Z,27.8903,-94.0367,2.0,142.1102333,6.855085703,-99999.0,'11133222,11111222,99999999' 
TABS,ioos:station:wmo:42046:1,2005-04-25T16:00:00Z,27.8903,-94.0367,2.0,133.6979451,7.468975833,-99999.0,'11133222,11111222,99999999' 
TABS,ioos:station:wmo:42046:1,2005-04-25T16:30:00Z,27.8903,-94.0367,2.0,164.1720508,5.352952456,-99999.0,'11133222,11111222,99999999' 
TABS,ioos:station:wmo:42046:1,2005-04-25T17:00:00Z,27.8903,-94.0367,2.0,192.1440392,0.808084154,-99999.0,'11133222,11111222,99999999' 
TABS,ioos:station:wmo:42046:1,2005-04-25T17:30:00Z,27.8903,-94.0367,2.0,174.0936622,1.166190379,-99999.0,'11133222,11111222,99999999' 
TABS,ioos:station:wmo:42046:1,2005-04-25T18:00:00Z,27.8903,-94.0367,2.0,47.78311948,2.038872237,-99999.0,'11133222,11111222,99999999' 
TABS,ioos:station:wmo:42046:1,2005-04-25T18:30:00Z,27.8903,-94.0367,2.0,16.61594302,3.287263299,-99999.0,'11133222,11111222,99999999' 
TABS,ioos:station:wmo:42046:1,2005-04-25T19:00:00Z,27.8903,-94.0367,2.0,80.93072791,2.156965461,-99999.0,'11133222,11111222,99999999' 
TABS,ioos:station:wmo:42046:1,2005-04-25T19:30:00Z,27.8903,-94.0367,2.0,110.0476001,3.033825967,-99999.0,'11133222,11111222,99999999' 
TABS,ioos:station:wmo:42046:1,2005-04-25T20:00:00Z,27.8903,-94.0367,2.0,101.3580132,2.335743993,-99999.0,'11133222,11111222,99999999' 
TABS,ioos:station:wmo:42046:1,2005-04-25T20:30:00Z,27.8903,-94.0367,2.0,51.15376251,5.277139377,-99999.0,'11133222,11111222,99999999' 
TABS,ioos:station:wmo:42046:1,2005-04-25T21:00:00Z,27.8903,-94.0367,2.0,64.9106848,3.820471175,-99999.0,'11133222,11111222,99999999' 
TABS,ioos:station:wmo:42046:1,2005-04-25T21:30:00Z,27.8903,-94.0367,2.0,64.35127733,5.31357695,-99999.0,'11133222,11111222,99999999' 
TABS,ioos:station:wmo:42046:1,2005-04-25T22:00:00Z,27.8903,-94.0367,2.0,41.78110753,5.16295458,-99999.0,'11133222,11111222,99999999' 
TABS,ioos:station:wmo:42046:1,2005-04-25T22:30:00Z,27.8903,-94.0367,2.0,45.49585246,5.720707998,-99999.0,'11133222,11111222,99999999' 
TABS,ioos:station:wmo:42046:1,2005-04-25T23:00:00Z,27.8903,-94.0367,2.0,56.31001126,4.074272941,-99999.0,'11133222,11111222,99999999' 
TABS,ioos:station:wmo:42046:1,2005-04-25T23:30:00Z,27.8903,-94.0367,2.0,66.13608833,5.314329685,-99999.0,'11133222,11111222,99999999' 
TABS,ioos:station:wmo:42046:1,2005-04-26T00:00:00Z,27.8903,-94.0367,2.0,61.97105507,5.42647215,-99999.0,'11133222,11111222,99999999' 
TABS,ioos:station:wmo:42046:1,2005-04-26T00:30:00Z,27.8903,-94.0367,2.0,344.4531416,5.33521321,-99999.0,'11133222,11111222,99999999' 
TABS,ioos:station:wmo:42046:1,2005-04-26T01:00:00Z,27.8903,-94.0367,2.0,27.25868836,4.803425861,-99999.0,'11133222,11111222,99999999' 
TABS,ioos:station:wmo:42046:1,2005-04-26T01:30:00Z,27.8903,-94.0367,2.0,22.12373402,10.56808876,-99999.0,'11111222,11111222,99999999' 
TABS,ioos:station:wmo:42046:1,2005-04-26T02:00:00Z,27.8903,-94.0367,2.0,33.25778745,9.554982993,-99999.0,'11133222,11111222,99999999' 
TABS,ioos:station:wmo:42046:1,2005-04-26T02:30:00Z,27.8903,-94.0367,2.0,25.32811041,13.46426753,-99999.0,'11111222,11111222,99999999' 
TABS,ioos:station:wmo:42046:1,2005-04-26T03:00:00Z,27.8903,-94.0367,2.0,27.10006919,16.28822888,-99999.0,'11111222,11111222,99999999' 
TABS,ioos:station:wmo:42046:1,2005-04-26T03:30:00Z,27.8903,-94.0367,2.0,26.06135632,17.79978932,-99999.0,'11111222,11111222,99999999' 
TABS,ioos:station:wmo:42046:1,2005-04-26T04:00:00Z,27.8903,-94.0367,2.0,36.46633504,19.8704932,-99999.0,'11111222,11111222,99999999' 
TABS,ioos:station:wmo:42046:1,2005-04-26T04:30:00Z,27.8903,-94.0367,2.0,33.69732641,22.29617456,-99999.0,'11111222,11111222,99999999' 
TABS,ioos:station:wmo:42046:1,2005-04-26T05:00:00Z,27.8903,-94.0367,2.0,42.72182101,23.65728006,-99999.0,'11111222,11111222,99999999' 
TABS,ioos:station:wmo:42046:1,2005-04-26T05:30:00Z,27.8903,-94.0367,2.0,40.78939285,22.14980361,-99999.0,'11111222,11111222,99999999' 
TABS,ioos:station:wmo:42046:1,2005-04-26T06:00:00Z,27.8903,-94.0367,2.0,47.7248395,24.54313957,-99999.0,'11111222,11111222,99999999' 
TABS,ioos:station:wmo:42046:1,2005-04-26T06:30:00Z,27.8903,-94.0367,2.0,60.77447546,38.73019623,-99999.0,'11111222,11111222,99999999' 
TABS,ioos:station:wmo:42046:1,2005-04-26T07:00:00Z,27.8903,-94.0367,2.0,62.45792013,39.33815578,-99999.0,'11111222,11111222,99999999' 
TABS,ioos:station:wmo:42046:1,2005-04-26T07:30:00Z,27.8903,-94.0367,2.0,68.52893851,41.55373629,-99999.0,'11111222,11111222,99999999' 
TABS,ioos:station:wmo:42046:1,2005-04-26T08:00:00Z,27.8903,-94.0367,2.0,69.96903416,43.93792098,-99999.0,'11111222,11111222,99999999' 
TABS,ioos:station:wmo:42046:1,2005-04-26T08:30:00Z,27.8903,-94.0367,2.0,76.4045164,42.88156714,-99999.0,'11111222,11111222,99999999' 
TABS,ioos:station:wmo:42046:1,2005-04-26T09:00:00Z,27.8903,-94.0367,2.0,82.95069674,43.18645158,-99999.0,'11111222,11111222,99999999' 
TABS,ioos:station:wmo:42046:1,2005-04-26T09:30:00Z,27.8903,-94.0367,2.0,93.52867826,45.00532524,-99999.0,'11111222,11111222,99999999' 
TABS,ioos:station:wmo:42046:1,2005-04-26T10:00:00Z,27.8903,-94.0367,2.0,95.11971583,42.3589955,-99999.0,'11111222,11111222,99999999' 
TABS,ioos:station:wmo:42046:1,2005-04-26T10:30:00Z,27.8903,-94.0367,2.0,99.5553196,42.53007407,-99999.0,'11111222,11111222,99999999' 
TABS,ioos:station:wmo:42046:1,2005-04-26T11:00:00Z,27.8903,-94.0367,2.0,104.927781,40.99348363,-99999.0,'11111222,11111222,99999999' 
TABS,ioos:station:wmo:42046:1,2005-04-26T11:30:00Z,27.8903,-94.0367,2.0,105.1518563,42.35232343,-99999.0,'11111222,11111222,99999999' 
TABS,ioos:station:wmo:42046:1,2005-04-26T12:00:00Z,27.8903,-94.0367,2.0,113.2238611,41.59000361,-99999.0,'11111222,11111222,99999999' 
TABS,ioos:station:wmo:42046:1,2005-04-26T12:30:00Z,27.8903,-94.0367,2.0,117.6385908,39.62113577,-99999.0,'11111222,11111222,99999999' 
TABS,ioos:station:wmo:42046:1,2005-04-26T13:00:00Z,27.8903,-94.0367,2.0,119.2214149,41.68485216,-99999.0,'11111222,11111222,99999999' 
TABS,ioos:station:wmo:42046:1,2005-04-26T13:30:00Z,27.8903,-94.0367,2.0,125.2270211,40.53265967,-99999.0,'11111222,11111222,99999999' 
TABS,ioos:station:wmo:42046:1,2005-04-26T14:00:00Z,27.8903,-94.0367,2.0,128.001885,39.17564677,-99999.0,'11111222,11111222,99999999' 
TABS,ioos:station:wmo:42046:1,2005-04-26T14:30:00Z,27.8903,-94.0367,2.0,132.0838148,39.19618604,-99999.0,'11111222,11111222,99999999' 
TABS,ioos:station:wmo:42046:1,2005-04-26T15:00:00Z,27.8903,-94.0367,2.0,137.4603444,38.7073546,-99999.0,'11111222,11111222,99999999' 
TABS,ioos:station:wmo:42046:1,2005-04-26T15:30:00Z,27.8903,-94.0367,2.0,145.5206545,40.27505431,-99999.0,'11111222,11111222,99999999' 
TABS,ioos:station:wmo:42046:1,2005-04-26T16:00:00Z,27.8903,-94.0367,2.0,150.6036127,36.48797336,-99999.0,'11111222,11111222,99999999' 
TABS,ioos:station:wmo:42046:1,2005-04-26T16:30:00Z,27.8903,-94.0367,2.0,163.271969,28.76735824,-99999.0,'11111222,11111222,99999999' 
TABS,ioos:station:wmo:42046:1,2005-04-26T17:00:00Z,27.8903,-94.0367,2.0,173.4908483,26.99399933,-99999.0,'11111222,11111222,99999999' 
TABS,ioos:station:wmo:42046:1,2005-04-26T17:30:00Z,27.8903,-94.0367,2.0,178.0686965,25.22432556,-99999.0,'11111222,11111222,99999999' 
TABS,ioos:station:wmo:42046:1,2005-04-26T18:00:00Z,27.8903,-94.0367,2.0,180.1742345,29.56013701,-99999.0,'11111222,11111222,99999999' 
TABS,ioos:station:wmo:42046:1,2005-04-26T18:30:00Z,27.8903,-94.0367,2.0,186.4688233,30.4438401,-99999.0,'11111222,11111222,99999999' 
TABS,ioos:station:wmo:42046:1,2005-04-26T19:00:00Z,27.8903,-94.0367,2.0,190.9304726,34.96435042,-99999.0,'11111222,11111222,99999999' 
TABS,ioos:station:wmo:42046:1,2005-04-26T19:30:00Z,27.8903,-94.0367,2.0,192.4888738,32.87798808,-99999.0,'11111222,11111222,99999999' 
TABS,ioos:station:wmo:42046:1,2005-04-26T20:00:00Z,27.8903,-94.0367,2.0,192.8429092,36.57502563,-99999.0,'11111222,11111222,99999999' 
TABS,ioos:station:wmo:42046:1,2005-04-26T20:30:00Z,27.8903,-94.0367,2.0,200.7848945,40.09978803,-99999.0,'11111222,11111222,99999999' 
TABS,ioos:station:wmo:42046:1,2005-04-26T21:00:00Z,27.8903,-94.0367,2.0,199.2560489,39.26687408,-99999.0,'11111222,11111222,99999999' 
TABS,ioos:station:wmo:42046:1,2005-04-26T21:30:00Z,27.8903,-94.0367,2.0,207.6457003,36.03393956,-99999.0,'11111222,11111222,99999999' 
TABS,ioos:station:wmo:42046:1,2005-04-26T22:00:00Z,27.8903,-94.0367,2.0,204.7649531,36.30929633,-99999.0,'11111222,11111222,99999999' 
TABS,ioos:station:wmo:42046:1,2005-04-26T22:30:00Z,27.8903,-94.0367,2.0,213.8250083,34.07810147,-99999.0,'11111222,11111222,99999999' 
TABS,ioos:station:wmo:42046:1,2005-04-26T23:00:00Z,27.8903,-94.0367,2.0,217.4499556,29.81552951,-99999.0,'11111222,11111222,99999999' 
TABS,ioos:station:wmo:42046:1,2005-04-26T23:30:00Z,27.8903,-94.0367,2.0,234.3951284,31.87977415,-99999.0,'11111222,11111222,99999999' 
TABS,ioos:station:wmo:42046:1,2005-04-27T00:00:00Z,27.8903,-94.0367,2.0,248.025727,30.84042153,-99999.0,'11111222,11111222,99999999' 
TABS,ioos:station:wmo:42046:1,2005-04-27T00:30:00Z,27.8903,-94.0367,2.0,250.1680904,29.71210023,-99999.0,'11111222,11111222,99999999' 
TABS,ioos:station:wmo:42046:1,2005-04-27T01:00:00Z,27.8903,-94.0367,2.0,252.8941058,30.25849302,-99999.0,'11111222,11111222,99999999' 
TABS,ioos:station:wmo:42046:1,2005-04-27T01:30:00Z,27.8903,-94.0367,2.0,261.9307574,30.42116533,-99999.0,'11111222,11111222,99999999' 
TABS,ioos:station:wmo:42046:1,2005-04-27T02:00:00Z,27.8903,-94.0367,2.0,262.6975728,27.30141571,-99999.0,'11111222,11111222,99999999' 
TABS,ioos:station:wmo:42046:1,2005-04-27T02:30:00Z,27.8903,-94.0367,2.0,273.8855359,27.89410332,-99999.0,'11111222,11111222,99999999' 
TABS,ioos:station:wmo:42046:1,2005-04-27T03:00:00Z,27.8903,-94.0367,2.0,281.711207,28.87096292,-99999.0,'11111222,11111222,99999999' 
TABS,ioos:station:wmo:42046:1,2005-04-27T03:30:00Z,27.8903,-94.0367,2.0,289.9034173,26.29031951,-99999.0,'11111222,11111222,99999999' 
TABS,ioos:station:wmo:42046:1,2005-04-27T04:00:00Z,27.8903,-94.0367,2.0,296.8223394,23.93511228,-99999.0,'11111222,11111222,99999999' 
TABS,ioos:station:wmo:42046:1,2005-04-27T04:30:00Z,27.8903,-94.0367,2.0,303.1557846,23.18470401,-99999.0,'11111222,11111222,99999999' 
TABS,ioos:station:wmo:42046:1,2005-04-27T05:00:00Z,27.8903,-94.0367,2.0,309.6095617,20.92390977,-99999.0,'11111222,11111222,99999999' 
TABS,ioos:station:wmo:42046:1,2005-04-27T05:30:00Z,27.8903,-94.0367,2.0,324.416561,18.80073669,-99999.0,'11111222,11111222,99999999' 
TABS,ioos:station:wmo:42046:1,2005-04-27T06:00:00Z,27.8903,-94.0367,2.0,341.7289394,15.50154831,-99999.0,'11111222,11111222,99999999' 
TABS,ioos:station:wmo:42046:1,2005-04-27T06:30:00Z,27.8903,-94.0367,2.0,343.2120616,17.27633352,-99999.0,'11111222,11111222,99999999' 
TABS,ioos:station:wmo:42046:1,2005-04-27T07:00:00Z,27.8903,-94.0367,2.0,354.6059353,19.46620918,-99999.0,'11111222,11111222,99999999' 
TABS,ioos:station:wmo:42046:1,2005-04-27T07:30:00Z,27.8903,-94.0367,2.0,1.076058564,19.17337998,-99999.0,'11111222,11111222,99999999' 
TABS,ioos:station:wmo:42046:1,2005-04-27T08:00:00Z,27.8903,-94.0367,2.0,6.726429018,22.45455188,-99999.0,'11111222,11111222,99999999' 
TABS,ioos:station:wmo:42046:1,2005-04-27T08:30:00Z,27.8903,-94.0367,2.0,15.22299866,21.78437054,-99999.0,'11111222,11111222,99999999' 
TABS,ioos:station:wmo:42046:1,2005-04-27T09:00:00Z,27.8903,-94.0367,2.0,30.784285,20.24207746,-99999.0,'11111222,11111222,99999999' 
TABS,ioos:station:wmo:42046:1,2005-04-27T09:30:00Z,27.8903,-94.0367,2.0,39.20624964,21.78410659,-99999.0,'11111222,11111222,99999999' 
TABS,ioos:station:wmo:42046:1,2005-04-27T10:00:00Z,27.8903,-94.0367,2.0,46.09803932,20.66545427,-99999.0,'11111222,11111222,99999999' 
TABS,ioos:station:wmo:42046:1,2005-04-27T10:30:00Z,27.8903,-94.0367,2.0,56.35547195,20.97322102,-99999.0,'11111222,11111222,99999999' 
TABS,ioos:station:wmo:42046:1,2005-04-27T11:00:00Z,27.8903,-94.0367,2.0,65.75864729,22.9430338,-99999.0,'11111222,11111222,99999999' 
TABS,ioos:station:wmo:42046:1,2005-04-27T11:30:00Z,27.8903,-94.0367,2.0,70.80890025,21.32509554,-99999.0,'11111222,11111222,99999999' 
TABS,ioos:station:wmo:42046:1,2005-04-27T12:00:00Z,27.8903,-94.0367,2.0,77.74870095,21.72475546,-99999.0,'11111222,11111222,99999999' 
TABS,ioos:station:wmo:42046:1,2005-04-27T12:30:00Z,27.8903,-94.0367,2.0,82.27510197,21.7978187,-99999.0,'11111222,11111222,99999999' 
TABS,ioos:station:wmo:42046:1,2005-04-27T13:00:00Z,27.8903,-94.0367,2.0,88.84738831,18.39372175,-99999.0,'11111222,11111222,99999999' 
TABS,ioos:station:wmo:42046:1,2005-04-27T13:30:00Z,27.8903,-94.0367,2.0,91.94934241,18.52071813,-99999.0,'11111222,11111222,99999999' 
TABS,ioos:station:wmo:42046:1,2005-04-27T14:00:00Z,27.8903,-94.0367,2.0,91.46484531,14.86485789,-99999.0,'11111222,11111222,99999999' 
TABS,ioos:station:wmo:42046:1,2005-04-27T14:30:00Z,27.8903,-94.0367,2.0,103.1825795,14.16322703,-99999.0,'11111222,11111222,99999999' 
TABS,ioos:station:wmo:42046:1,2005-04-27T15:00:00Z,27.8903,-94.0367,2.0,93.91315037,12.30869611,-99999.0,'11111222,11111222,99999999' 
TABS,ioos:station:wmo:42046:1,2005-04-27T15:30:00Z,27.8903,-94.0367,2.0,89.13775605,11.96135444,-99999.0,'11111222,11111222,99999999' 
TABS,ioos:station:wmo:42046:1,2005-04-27T16:00:00Z,27.8903,-94.0367,2.0,80.38862872,12.63739293,-99999.0,'11111222,11111222,99999999' 